星链-32933 (STARLINK-32933)

导读

STARLINK-32933是一颗由美国发射的星链卫星,于北京时间2025年2月23日00:00发射升空,隶属于SpaceX公司的星链星座项目。星链项目旨在构建全球卫星互联网星座,为全球不同地区提供低延迟、高速率的宽带互联网服务,该卫星进一步扩充了星链星座的在轨规模。

Basic Information
目录编号:
63082
目录名称:
STARLINK-32933
国际标识:
2025-037F
轨道中心:
EARTH
卫星名称:
星链-32933
卫星全名:
星链-32933 (STARLINK-32933)
卫星状态:
在轨 (已飞行476 天)
发射日期:
2025-02-23 UTC
国别 :
美国 (US)
星等 :
--
Orbit Information
数据来源 国际轨道数据 AOE轨道数据
星历时间 2026-06-14T05:40:56+0800
11小时前
查看轨道信息
2026-06-11T05:00:00+0800
3天前
查看轨道信息
半长轴 6950.197km 6950.186km
偏心率 0.0002911 0.0002782
轨道倾角 70.001° 69.999°
近地点辐角 266.699° 264.535°
升交点赤经 111.872° 119.507°
平近点角 93.384° 324.932°
近地点 570.036km 570.115km
远地点 574.084km 573.983km
周期 96.107分钟 96.107分钟
每日圈数 14.983288 14.983323
Detailed Information
固有亮度:
5
最大亮度:
2.5
卫星平台:
Starlink V1.0
覆盖范围:
全球
运营商:
太空探索技术公司
运营商所在国:
美国
制造商(研发单位):
太空探索技术公司
制造商所在国:
美国
使用方式:
暂无
Satellite Introduction
Starlink 计划是 SpaceX 推出的全球卫星互联网项目,通过发射低轨道卫星,为全球尤其是偏远地区提供高速、低延迟的互联网服务。自 2019 年起,Starlink 已部署数千颗卫星,旨在缩小全球数字鸿沟,推动互联网普及。该项目还为军事、航空等行业提供通信支持,带来广泛经济效益。
2D Orbit Map
3D Orbit Map
Orbit Altitude Analysis Chart
Orbit Inclination Analysis Chart
Orbit Comprehensive Analysis Chart
View Comprehensive Chart